Retour au catalogue

STARLINK-31131

ActifCommunicationsVLEO
NORAD 58673·PAYLOAD·🇺🇸 United States

Lancé Dec 29, 2023 depuis Cape Canaveral Space Force Station

Loading…

Prochains Passages (prochaines 24 heures)

TLE

FraisSource: CelesTrak SupGP

Époque: Sep 15, 2026, 01:49 UTC

1 58673C 23211G   26258.07618056  .00018309  00000+0  66316-3 0  2587
2 58673  42.9999  84.9271 0001512 274.0137  29.7404 15.27569340    16

Suivez STARLINK-31131 en temps réel avec AllMySat

Download on the App Store